Starlink 30041

operational
NORAD ID: 57613 Int'l Des: 2023-119 Owner: SPXS Country: US Constellation: starlink
LEOCIRCULAR

Starlink 30041について

説明を読み込み中...

リアルタイム位置

3D地球を読み込み中...

次回通過

高度履歴

Altitude vs Time

uPlot chart will show altitude changes over time

軌道要素

1 57613U 23119M 26035.02184379 .00000779 00000-0 72700-4 0 9991
2 57613 43.0028 264.3550 0001167 263.3032 96.7678 15.02535155138029
Epoch: Feb 4, 2026 • Age: 9 hours

現在のステータス

高度 559.2 km
速度 7.58 km/s
衛星直下点 -3.52°S, 171.74°E
打ち上げ日 Aug 11, 2023
運用期間 2.4 years
タイプ internet

技術仕様

分類 Payload
質量 730.00 kg
乾燥質量 700.00 kg
総質量 730.00 kg
長さ 0.30 m
直径 4.10 m
スパン 29.00 m
形状 Box + pan
製造者 SPXS
バスタイプ Starlink V2M
フェーズステータス In Orbit
所有者/国 SPXS/US

大規模コンステレーション

Loading constellations...